Location: Grand Rapids
(42.9630°N, 85.6680°W)
Time: 02:07:37
(UTC-04:00)

A-11 Canister half - Pass Details

Date: 08 June 2024
Orbit: 1524 x 1684 km, 47.3° (Epoch: 21 June)

Event Time Altitude Azimuth Distance (km) Brightness Sun altitude
Rises 22:41:47 0° 290° (WNW) 4,682 12.7 -12.1°
Reaches altitude 10° 22:44:48 10° 291° (WNW) 3,707 12.1 -12.5°
Maximum altitude 22:54:13 84° 21° (NNE) 1,569 9.1 -13.6°
Enters shadow 23:03:36 11° 110° (ESE) 3,713 10.5 -14.7°
Drops below altitude 10° 23:03:53 10° 110° (ESE) 3,805 - -14.7°
Sets 23:07:02 0° 111° (ESE) 4,811 - -15.0°
